Weston, WY

10:10 PM MDT on September 24, 2016 (GMT -0600)
Gillette-Campbell County

Weather History for KGCC - January, 2013

Change the Weather History Date:

Wednesday, January 2, 2013

  Actual Average Record
Temperature  
Mean Temperature 15 °F 25 °F  
Max Temperature 26 °F 37 °F 39 °F (2015)
Min Temperature 3 °F 14 °F 13 °F (2016)
Degree Days  
Heating Degree Days 50 40  
Month to date heating degree days 94 80  
Since 1 July heating degree days 2934 3221  
Cooling Degree Days 0 0  
Month to date cooling degree days 0 0  
Year to date cooling degree days 0 0  
Moisture  
Dew Point 12 °F    
Average Humidity 71    
Maximum Humidity 92    
Minimum Humidity 50    
Precipitation  
Precipitation T in 0.01 in 0.00 in (2016)
Month to date precipitation 0.04 0.02  
Year to date precipitation 0.04 0.02  
Sea Level Pressure  
Sea Level Pressure 30.29 in    
Wind  
Wind Speed 15 mph (NW)    
Max Wind Speed 30 mph    
Max Gust Speed 36 mph    
Visibility 10 miles    
Events      
T = Trace of Precipitation, MM = Missing Value Source: NWS Daily Summary

Daily Weather History Graph

Daily Weather History Graph

Search for Another Location

Airport or City:

Trip Planner

Search our weather history database for the weather conditions in past years. The results will help you decide how hot, cold, wet, or windy it might be!

Date:

Astronomy

Jan. 02, 2013 Rise Set
Actual Time 7:38 AM MST 4:34 PM MST
Civil Twilight 7:05 AM MST 5:07 PM MST
Nautical Twilight 6:28 AM MST 5:44 PM MST
Astronomical Twilight 5:53 AM MST 6:19 PM MST
Moon 10:23 PM MST (1/2) 10:08 AM MST (1/2)
Length of Visible Light 10h 02m
Length of Day
8h 56m
Waning Gibbous, 74% of the Moon is Illuminated
Jan 2
Waning Gibbous
Jan 4
Last Quarter
Jan 11
New
Jan 18
First Quarter
Jan 26
Full

Hourly Weather History & Observations

Time (MST) Temp. Windchill Dew Point Humidity Pressure Visibility Wind Dir Wind Speed Gust Speed Precip Events Conditions
12:01 AM 24.8 °F 9.6 °F 21.2 °F 86% 30.10 in 7.0 mi WNW 23.0 mph 31.1 mph N/A   Overcast
12:53 AM 24.1 °F 10.6 °F 19.9 °F 84% 30.21 in 10.0 mi WNW 17.3 mph - 0.00 in   Overcast
1:53 AM 21.9 °F 8.7 °F 17.1 °F 82% 30.22 in 10.0 mi WNW 15.0 mph - N/A   Mostly Cloudy
2:53 AM 23.0 °F 8.3 °F 17.1 °F 78% 30.20 in 10.0 mi WNW 19.6 mph - N/A   Overcast
3:53 AM 21.9 °F 6.9 °F 16.0 °F 78% 30.23 in 10.0 mi WNW 19.6 mph - N/A   Mostly Cloudy
4:53 AM 24.1 °F 9.0 °F 17.1 °F 75% 30.22 in 10.0 mi WNW 21.9 mph 31.1 mph N/A   Overcast
5:53 AM 23.0 °F 8.3 °F 15.1 °F 72% 30.23 in 10.0 mi NW 19.6 mph - N/A   Overcast
6:53 AM 21.0 °F 8.1 °F 14.0 °F 74% 30.23 in 10.0 mi WNW 13.8 mph - N/A   Overcast
7:53 AM 19.0 °F 4.5 °F 10.9 °F 71% 30.25 in 10.0 mi WNW 16.1 mph - N/A   Partly Cloudy
8:53 AM 19.0 °F 5.0 °F 10.9 °F 71% 30.26 in 10.0 mi WNW 15.0 mph - N/A   Mostly Cloudy
9:53 AM 23.0 °F 10.1 °F 12.0 °F 63% 30.26 in 10.0 mi WNW 15.0 mph - N/A   Overcast
10:53 AM 25.0 °F 11.7 °F 10.9 °F 55% 30.24 in 10.0 mi NW 17.3 mph 25.3 mph N/A   Overcast
11:53 AM 26.1 °F 12.7 °F 10.9 °F 53% 30.22 in 10.0 mi NW 18.4 mph - N/A   Clear
12:53 PM 25.0 °F 9.2 °F 12.0 °F 58% 30.22 in 9.0 mi NW 25.3 mph 33.4 mph N/A   Clear
1:53 PM 23.0 °F 7.6 °F 14.0 °F 68% 30.26 in 10.0 mi NNW 21.9 mph 32.2 mph N/A   Mostly Cloudy
2:53 PM 21.0 °F 7.1 °F 12.9 °F 71% 30.30 in 10.0 mi North 16.1 mph 23.0 mph N/A   Overcast
3:53 PM 19.0 °F 7.5 °F 12.9 °F 77% 30.33 in 10.0 mi North 10.4 mph - N/A   Overcast
4:53 PM 18.0 °F 4.2 °F 12.9 °F 81% 30.35 in 10.0 mi NNW 13.8 mph - N/A   Overcast
5:53 PM 14.0 °F -0.8 °F 10.0 °F 84% 30.38 in 10.0 mi North 13.8 mph - N/A   Clear
6:53 PM 10.0 °F - 8.1 °F 92% 30.41 in 10.0 mi Calm Calm - N/A   Clear
7:53 PM 8.1 °F -4.3 °F 7.0 °F 95% 30.43 in 10.0 mi WNW 8.1 mph - N/A   Clear
8:53 PM 3.9 °F -9.4 °F 1.9 °F 91% 30.46 in 10.0 mi West 8.1 mph - N/A   Clear
9:53 PM 8.1 °F -4.3 °F 6.1 °F 92% 30.44 in 10.0 mi West 8.1 mph - N/A   Clear
10:53 PM 9.0 °F -4.2 °F 7.0 °F 92% 30.43 in 10.0 mi West 9.2 mph - N/A   Clear
11:53 PM 9.0 °F -3.2 °F 7.0 °F 92% 30.43 in 10.0 mi West 8.1 mph - N/A   Clear